Location: Roanoke
(37.2710°N, 79.9420°W)
Time: 19:49:04
(UTC-05:00)

Courier 1B Rocket - Pass Details

Date: 20 November 2019
Orbit: 920 x 1202 km, 28.2° (Epoch: 14 December)

Event Time Altitude Azimuth Distance (km) Brightness Sun altitude
Rises 15:36:25 0° 246° (WSW) 3,776 9.7 14.4°
Reaches altitude 10° 15:39:13 10° 238° (WSW) 2,868 10.1 14.0°
Maximum altitude 15:45:41 39° 172° (S) 1,594 6.7 12.9°
Drops below altitude 10° 15:52:34 10° 107° (ESE) 3,053 7.3 11.9°
Sets 15:55:38 0° 100° (E) 4,046 7.8 11.4°
